DW2147 Weather Reports


time (UTC)temp
F
wind
direction
speed
knots
gust
knots
rain 1hr
in
rain 24hr
in
rain mn
in
humidity
%
barometer
mb
20260505051114 64 0 3.5 10.4 0.00 0.00 0.00 56 1008.8
20260505050612 64 0 3.5 10.4 0.00 0.00 0.00 56 1008.7
20260505050110 64 0 3.5 8.7 0.00 0.00 0.00 56 1008.8
20260505041608 63 0 1.7 7.0 0.00 0.00 0.00 57 1008.6
20260505041103 63 0 1.7 4.3 0.00 0.00 0.00 57 1008.6
20260505040602 63 0 1.7 4.3 0.00 0.00 0.00 57 1008.6
20260505040334 63 0 1.7 4.3 0.00 0.00 0.00 57 1008.7
20260505035832 64 0 1.7 3.5 0.00 0.00 0.00 57 1008.7
20260505035102 64 0 0.9 2.6 0.00 0.00 0.00 57 1008.7
20260505034556 64 0 0.0 2.6 0.00 0.00 0.00 57 1008.7
20260505034058 64 0 0.9 2.6 0.00 0.00 0.00 57 1008.7
20260505034054 64 0 0.0 1.7 0.00 0.00 0.00 57 1008.7
20260505033320 64 0 0.9 2.6 0.00 0.00 0.00 57 1008.8
20260505032549 64 0 0.9 2.6 0.00 0.00 0.00 57 1008.7
20260505032045 64 0 0.9 2.6 0.00 0.00 0.00 57 1008.7
20260505031545 64 0 0.9 2.6 0.00 0.00 0.00 57 1008.8
20260505031042 64 0 1.7 2.6 0.00 0.00 0.00 57 1008.9
20260505030544 64 0 0.9 3.5 0.00 0.00 0.00 57 1009.0
20260505030044 64 0 0.9 3.5 0.00 0.00 0.00 57 1009.1
20260505025813 64 0 0.9 2.6 0.00 0.00 0.00 57 1008.9
20260505025038 64 0 1.7 4.3 0.00 0.00 0.00 57 1009.0
20260505024808 64 0 1.7 4.3 0.00 0.00 0.00 57 1009.1
20260505024037 64 0 1.7 3.5 0.00 0.00 0.00 57 1009.1
20260505023536 64 0 1.7 4.3 0.00 0.00 0.00 56 1009.1
20260505023307 64 0 1.7 4.3 0.00 0.00 0.00 56 1009.4
20260505022536 64 0 2.6 5.2 0.00 0.00 0.00 56 1009.4
20260505022033 65 0 2.6 5.2 0.00 0.00 0.00 56 1009.7
20260505021533 65 0 2.6 5.2 0.00 0.00 0.00 56 1009.6
20260505021034 65 0 2.6 4.3 0.00 0.00 0.00 55 1009.8
20260505020533 65 0 2.6 4.3 0.00 0.00 0.00 55 1009.8
20260505020300 65 0 3.5 8.7 0.00 0.00 0.00 55 1009.8
20260505015530 65 0 4.3 8.7 0.00 0.00 0.00 54 1009.9
20260505015030 65 0 3.5 7.8 0.00 0.00 0.00 54 1009.8
20260505014534 66 0 4.3 8.7 0.00 0.00 0.00 54 1009.9
20260505014530 66 0 3.5 8.7 0.00 0.00 0.00 54 1009.9
20260505013527 66 0 3.5 7.8 0.00 0.00 0.00 54 1009.8
20260505013027 66 0 3.5 5.2 0.00 0.00 0.00 53 1009.9
20260505012526 67 0 3.5 7.8 0.00 0.00 0.00 53 1009.9
20260505012026 67 0 3.5 7.8 0.00 0.00 0.00 53 1009.7
20260505011526 67 0 3.5 7.0 0.00 0.00 0.00 53 1009.8
20260505011027 67 0 3.5 8.7 0.00 0.00 0.00 52 1009.8
20260505010527 67 0 4.3 9.6 0.00 0.00 0.00 53 1009.6
20260505010024 67 0 4.3 9.6 0.00 0.00 0.00 53 1009.5
20260505005524 67 0 4.3 8.7 0.00 0.00 0.00 52 1009.4
20260505005023 67 0 4.3 8.7 0.00 0.00 0.00 52 1009.4
20260505004524 68 0 4.3 9.6 0.00 0.00 0.00 51 1009.3
20260505004023 68 0 4.3 9.6 0.00 0.00 0.00 51 1009.3
20260505003523 68 0 4.3 8.7 0.00 0.00 0.00 51 1009.4
20260505003024 68 0 3.5 7.8 0.00 0.00 0.00 51 1009.3
20260505002524 68 0 3.5 7.0 0.00 0.00 0.00 51 1009.3
20260505002022 68 0 2.6 7.0 0.00 0.00 0.00 51 1009.1
20260505001522 68 0 3.5 7.0 0.00 0.00 0.00 50 1009.3
20260505001019 69 0 5.2 11.3 0.00 0.00 0.00 50 1009.3
20260505000520 69 0 5.2 11.3 0.00 0.00 0.00 50 1009.1
20260505000019 69 0 4.3 10.4 0.00 0.00 0.00 50 1009.1
20260504235515 69 0 4.3 10.4 0.00 0.00 0.00 50 1009.3
20260504235016 69 0 4.3 7.8 0.00 0.00 0.00 50 1009.3
20260504234515 69 0 4.3 10.4 0.00 0.00 0.00 49 1009.4
20260504234015 69 0 4.3 12.2 0.00 0.00 0.00 50 1009.4
20260504233514 69 0 5.2 12.2 0.00 0.00 0.00 49 1009.6
20260504233012 70 0 5.2 12.2 0.00 0.00 0.00 49 1009.6
20260504232744 70 0 3.5 7.8 0.00 0.00 0.00 49 1009.5
20260504232011 70 0 2.6 5.2 0.00 0.00 0.00 48 1009.4
20260504231513 70 0 3.5 9.6 0.00 0.00 0.00 48 1009.4
20260504231012 70 0 4.3 11.3 0.00 0.00 0.00 49 1009.5
20260504230511 70 0 4.3 11.3 0.00 0.00 0.00 48 1009.7
20260504230013 70 0 5.2 16.5 0.00 0.00 0.00 49 1009.7
20260504225510 71 0 5.2 16.5 0.00 0.00 0.00 47 1009.7
20260504225008 71 0 3.5 10.4 0.00 0.00 0.00 47 1009.7
20260504224507 71 155 3.5 8.7 0.00 0.00 0.00 48 1009.7
20260504224007 71 0 3.5 8.7 0.00 0.00 0.00 48 1009.9
20260504223508 71 0 4.3 10.4 0.00 0.00 0.00 49 1009.9
20260504223007 71 0 5.2 10.4 0.00 0.00 0.00 47 1009.8
20260504222506 71 0 5.2 11.3 0.00 0.00 0.00 48 1009.7
20260504222006 71 0 6.1 11.3 0.00 0.00 0.00 47 1009.6
20260504221507 71 0 7.0 12.2 0.00 0.00 0.00 47 1009.5
20260504221007 71 0 6.1 13.0 0.00 0.00 0.00 47 1009.6
20260504220506 71 0 7.0 13.9 0.00 0.00 0.00 47 1009.5
20260504220004 71 0 7.0 13.9 0.00 0.00 0.00 46 1009.5
20260504215501 71 0 6.1 13.9 0.00 0.00 0.00 47 1009.5
20260504215001 71 0 6.1 13.0 0.00 0.00 0.00 48 1009.4
20260504214500 71 0 7.8 13.9 0.00 0.00 0.00 47 1009.4
20260504214000 71 0 7.0 13.9 0.00 0.00 0.00 46 1009.6
20260504213458 71 0 6.1 12.2 0.00 0.00 0.00 48 1009.5
20260504212958 71 0 6.1 13.9 0.00 0.00 0.00 46 1009.5
20260504212458 71 0 6.1 13.9 0.00 0.00 0.00 47 1009.6
20260504211956 71 0 7.8 16.5 0.00 0.00 0.00 46 1009.5
20260504211459 72 0 7.0 16.5 0.00 0.00 0.00 45 1009.4
20260504210956 72 0 6.1 14.8 0.00 0.00 0.00 46 1009.6
20260504210726 72 0 5.2 10.4 0.00 0.00 0.00 45 1009.5
20260504210226 72 0 5.2 10.4 0.00 0.00 0.00 48 1009.6
20260504205453 72 0 5.2 11.3 0.00 0.00 0.00 46 1009.6
20260504204954 72 0 7.0 17.4 0.00 0.00 0.00 46 1009.7
20260504204450 72 0 8.7 17.4 0.00 0.00 0.00 50 1009.7
20260504203950 72 0 7.0 13.0 0.00 0.00 0.00 46 1009.7
20260504203450 72 0 7.0 13.0 0.00 0.00 0.00 45 1009.8
20260504203223 72 0 7.0 13.0 0.00 0.00 0.00 45 1009.8
20260504202449 73 0 7.0 15.6 0.00 0.00 0.00 47 1009.6
20260504201948 73 0 6.1 15.6 0.00 0.00 0.00 47 1009.8
20260504201449 72 0 6.1 13.0 0.00 0.00 0.00 45 1009.8
20260504200947 73 0 6.1 13.0 0.00 0.00 0.00 44 1009.8
20260504200448 73 0 7.0 17.4 0.00 0.00 0.00 46 1009.9
20260504195945 72 0 7.8 17.4 0.00 0.00 0.00 45 1009.9
20260504195718 72 0 8.7 18.2 0.00 0.00 0.00 46 1009.8
20260504194946 72 0 9.6 22.6 0.00 0.00 0.00 46 1009.8
20260504194444 72 0 10.4 22.6 0.00 0.00 0.00 47 1010.0
20260504193944 72 0 12.2 19.1 0.00 0.00 0.00 48 1009.8
20260504193444 73 0 9.6 19.1 0.00 0.00 0.00 47 1009.9
20260504192944 73 0 7.0 14.8 0.00 0.00 0.00 47 1010.0
20260504192446 73 0 7.8 16.5 0.00 0.00 0.00 46 1010.0
20260504191944 73 0 8.7 17.4 0.00 0.00 0.00 47 1010.1
20260504191444 73 0 7.0 17.4 0.00 0.00 0.00 48 1010.2
20260504190942 72 0 8.7 21.7 0.00 0.00 0.00 49 1010.1
20260504190444 71 0 9.6 20.0 0.00 0.00 0.00 50 1010.1
20260504190439 71 0 11.3 21.7 0.00 0.00 0.00 47 1010.2
20260504185439 71 0 9.6 16.5 0.00 0.00 0.00 47 1010.3
20260504184939 71 0 8.7 17.4 0.00 0.00 0.00 46 1010.4
20260504184438 72 0 7.0 17.4 0.00 0.00 0.00 46 1010.5
20260504184210 73 0 7.8 14.8 0.00 0.00 0.00 44 1010.6
20260504183712 73 0 7.8 14.8 0.00 0.00 0.00 45 1010.6
20260504182938 73 0 7.0 13.9 0.00 0.00 0.00 45 1010.6
20260504182439 73 0 6.1 15.6 0.00 0.00 0.00 47 1010.7
20260504181944 72 0 6.1 13.9 0.00 0.00 0.00 45 1010.8
20260504181939 72 0 6.1 15.6 0.00 0.00 0.00 44 1010.7
20260504180937 72 0 7.0 13.0 0.00 0.00 0.00 47 1010.7
20260504180437 72 0 7.0 13.9 0.00 0.00 0.00 47 1010.8
20260504175937 71 0 7.8 15.6 0.00 0.00 0.00 45 1010.8
20260504175438 71 0 7.8 15.6 0.00 0.00 0.00 49 1011.0
20260504174938 71 0 7.8 14.8 0.00 0.00 0.00 47 1010.9
20260504174435 70 0 8.7 21.7 0.00 0.00 0.00 48 1011.0
20260504173938 70 0 8.7 21.7 0.00 0.00 0.00 46 1011.2
20260504173436 70 0 7.0 16.5 0.00 0.00 0.00 46 1011.2
20260504172938 71 0 6.1 13.9 0.00 0.00 0.00 46 1011.2
20260504172434 71 0 6.1 13.9 0.00 0.00 0.00 45 1011.2
20260504171934 71 0 8.7 17.4 0.00 0.00 0.00 45 1011.4
20260504171703 71 0 8.7 17.4 0.00 0.00 0.00 47 1011.2
20260504170930 71 0 7.0 13.0 0.00 0.00 0.00 46 1011.2
20260504170430 71 0 7.0 13.9 0.00 0.00 0.00 47 1011.3
20260504170201 70 0 8.7 18.2 0.00 0.00 0.00 49 1011.3
20260504160422 68 0 8.7 15.6 0.00 0.00 0.00 48 1012.2
20260504150913 65 0 7.8 20.0 0.00 0.00 0.00 47 1012.8
20260504150414 65 0 6.1 14.8 0.00 0.00 0.00 49 1013.0
20260504140640 63 0 8.7 14.8 0.00 0.00 0.00 47 1012.8
20260504130407 59 0 7.0 14.8 0.00 0.00 0.00 52 1012.9
20260504110352 51 0 4.3 9.6 0.00 0.00 0.00 57 1012.8
20260504100340 51 0 3.5 7.8 0.00 0.00 0.00 53 1012.8
20260504081825 50 0 3.5 7.8 0.00 0.00 0.00 52 1013.7
20260504081326 50 0 2.6 7.8 0.00 0.00 0.00 52 1013.5
20260504080828 50 0 2.6 5.2 0.00 0.00 0.00 52 1013.6
20260504080325 50 0 2.6 5.2 0.00 0.00 0.00 52 1013.5
20260504070310 50 0 2.6 5.2 0.00 0.00 0.00 52 1013.8